Time,TemperatureF,DewpointF,PressureIn,WindDirection,WindDirectionDegrees,WindSpeedMPH,WindSpeedGustMPH,Humidity,HourlyPrecipIn,Conditions,Clouds,dailyrainin,SoftwareType,DateUTC
2013-10-07 00:01:00,66.0,66.0,29.90,South,180,0.0,4.0,100,0.00,,,0.00,Rainwise IP-100,2013-10-07 04:01:00,
2013-10-07 00:02:00,66.0,66.0,29.90,South,180,2.0,3.0,100,0.00,,,0.00,Rainwise IP-100,2013-10-07 04:02:00,
2013-10-07 00:07:00,67.0,67.0,29.90,SSE,157,4.0,4.0,100,0.00,,,0.00,Rainwise IP-100,2013-10-07 04:07:00,
2013-10-07 00:12:00,67.0,67.0,29.90,SSW,202,2.0,4.0,100,0.00,,,0.00,Rainwise IP-100,2013-10-07 04:12:00,
2013-10-07 00:17:00,67.0,67.0,29.90,SW,225,0.0,4.0,100,0.00,,,0.00,Rainwise IP-100,2013-10-07 04:17:00,
2013-10-07 00:22:00,67.0,67.0,29.89,South,180,1.0,3.0,100,0.00,,,0.00,Rainwise IP-100,2013-10-07 04:22:00,
2013-10-07 00:27:00,67.0,67.0,29.89,SW,225,0.0,3.0,100,0.00,,,0.00,Rainwise IP-100,2013-10-07 04:27:00,
2013-10-07 00:32:00,67.0,67.0,29.89,South,180,0.0,4.0,100,0.00,,,0.00,Rainwise IP-100,2013-10-07 04:32:00,
2013-10-07 00:37:00,67.0,67.0,29.89,West,270,5.0,5.0,100,0.00,,,0.00,Rainwise IP-100,2013-10-07 04:37:00,
2013-10-07 00:42:00,67.0,67.0,29.89,WSW,247,1.0,5.0,100,0.00,,,0.00,Rainwise IP-100,2013-10-07 04:42:00,
2013-10-07 00:47:00,67.0,67.0,29.89,SSW,202,0.0,3.0,100,0.00,,,0.00,Rainwise IP-100,2013-10-07 04:47:00,
2013-10-07 00:52:00,67.0,67.0,29.89,SW,225,2.0,4.0,100,0.00,,,0.00,Rainwise IP-100,2013-10-07 04:52:00,
2013-10-07 00:57:00,67.0,67.0,29.89,SSE,157,0.0,3.0,100,0.00,,,0.00,Rainwise IP-100,2013-10-07 04:57:00,
2013-10-07 01:02:00,67.0,67.0,29.89,South,180,0.0,5.0,100,0.00,,,0.00,Rainwise IP-100,2013-10-07 05:02:00,
2013-10-07 01:07:00,67.0,67.0,29.89,South,180,3.0,3.0,100,0.00,,,0.00,Rainwise IP-100,2013-10-07 05:07:00,
2013-10-07 01:12:00,67.0,67.0,29.89,WSW,247,0.0,3.0,100,0.00,,,0.00,Rainwise IP-100,2013-10-07 05:12:00,
2013-10-07 01:17:00,67.0,67.0,29.89,SSE,157,2.0,4.0,100,0.00,,,0.00,Rainwise IP-100,2013-10-07 05:17:00,
2013-10-07 01:22:00,67.0,67.0,29.89,South,180,0.0,4.0,100,0.00,,,0.00,Rainwise IP-100,2013-10-07 05:22:00,
2013-10-07 01:27:00,67.0,67.0,29.89,South,180,0.0,2.0,100,0.00,,,0.00,Rainwise IP-100,2013-10-07 05:27:00,
2013-10-07 01:32:00,67.0,67.0,29.89,West,270,2.0,3.0,100,0.00,,,0.00,Rainwise IP-100,2013-10-07 05:32:00,
2013-10-07 01:37:00,67.0,67.0,29.89,SW,225,0.0,5.0,100,0.00,,,0.00,Rainwise IP-100,2013-10-07 05:37:00,
2013-10-07 01:42:00,67.0,67.0,29.89,NNW,337,0.0,2.0,100,0.00,,,0.00,Rainwise IP-100,2013-10-07 05:42:00,
2013-10-07 01:47:00,67.0,67.0,29.89,WSW,247,0.0,1.0,100,0.00,,,0.00,Rainwise IP-100,2013-10-07 05:47:00,
2013-10-07 01:52:00,67.0,67.0,29.89,WSW,247,2.0,2.0,100,0.00,,,0.00,Rainwise IP-100,2013-10-07 05:52:00,
2013-10-07 01:57:00,67.0,67.0,29.89,WSW,247,0.0,6.0,100,0.00,,,0.00,Rainwise IP-100,2013-10-07 05:57:00,
2013-10-07 02:02:00,67.0,67.0,29.89,NNW,337,0.0,3.0,100,0.00,,,0.00,Rainwise IP-100,2013-10-07 06:02:00,
2013-10-07 02:07:00,67.0,67.0,29.88,South,180,0.0,2.0,100,0.00,,,0.00,Rainwise IP-100,2013-10-07 06:07:00,
2013-10-07 02:12:00,67.0,67.0,29.88,South,180,0.0,2.0,100,0.00,,,0.00,Rainwise IP-100,2013-10-07 06:12:00,
2013-10-07 02:17:00,67.0,67.0,29.88,WSW,247,0.0,4.0,100,0.00,,,0.00,Rainwise IP-100,2013-10-07 06:17:00,
2013-10-07 02:22:00,67.0,67.0,29.88,NNE,22,0.0,6.0,100,0.00,,,0.00,Rainwise IP-100,2013-10-07 06:22:00,
2013-10-07 02:27:00,67.0,67.0,29.87,WSW,247,2.0,3.0,100,0.00,,,0.00,Rainwise IP-100,2013-10-07 06:27:00,
2013-10-07 02:32:00,67.0,67.0,29.87,SW,225,1.0,3.0,100,0.00,,,0.00,Rainwise IP-100,2013-10-07 06:32:00,
2013-10-07 02:37:00,67.0,67.0,29.87,WSW,247,0.0,7.0,100,0.00,,,0.00,Rainwise IP-100,2013-10-07 06:37:00,
2013-10-07 02:42:00,67.0,67.0,29.87,South,180,2.0,3.0,100,0.00,,,0.00,Rainwise IP-100,2013-10-07 06:42:00,
2013-10-07 02:47:00,67.0,67.0,29.86,SW,225,2.0,6.0,100,0.00,,,0.00,Rainwise IP-100,2013-10-07 06:47:00,
2013-10-07 02:52:00,67.0,67.0,29.86,South,180,0.0,5.0,100,0.00,,,0.00,Rainwise IP-100,2013-10-07 06:52:00,
2013-10-07 02:57:00,67.0,67.0,29.86,South,180,2.0,3.0,100,0.00,,,0.00,Rainwise IP-100,2013-10-07 06:57:00,
2013-10-07 03:02:00,67.0,67.0,29.86,WSW,247,4.0,6.0,100,0.00,,,0.00,Rainwise IP-100,2013-10-07 07:02:00,
2013-10-07 03:07:00,67.0,67.0,29.86,South,180,0.0,6.0,100,0.00,,,0.00,Rainwise IP-100,2013-10-07 07:07:00,
2013-10-07 03:12:00,67.0,67.0,29.86,SSE,157,2.0,5.0,100,0.00,,,0.00,Rainwise IP-100,2013-10-07 07:12:00,
2013-10-07 03:17:00,67.0,67.0,29.85,South,180,0.0,5.0,100,0.00,,,0.00,Rainwise IP-100,2013-10-07 07:17:00,
2013-10-07 03:22:00,67.0,67.0,29.85,SW,225,0.0,6.0,100,0.00,,,0.00,Rainwise IP-100,2013-10-07 07:22:00,
2013-10-07 03:27:00,66.0,66.0,29.85,SSW,202,1.0,2.0,100,0.00,,,0.00,Rainwise IP-100,2013-10-07 07:27:00,
2013-10-07 03:32:00,66.0,66.0,29.85,SSE,157,0.0,4.0,100,0.00,,,0.00,Rainwise IP-100,2013-10-07 07:32:00,
2013-10-07 03:37:00,66.0,66.0,29.85,WSW,247,0.0,4.0,100,0.00,,,0.00,Rainwise IP-100,2013-10-07 07:37:00,
2013-10-07 03:42:00,66.0,66.0,29.85,WSW,247,0.0,7.0,100,0.00,,,0.00,Rainwise IP-100,2013-10-07 07:42:00,
2013-10-07 03:47:00,66.0,66.0,29.85,SW,225,0.0,2.0,100,0.00,,,0.00,Rainwise IP-100,2013-10-07 07:47:00,
2013-10-07 03:52:00,66.0,66.0,29.85,South,180,0.0,3.0,100,0.00,,,0.00,Rainwise IP-100,2013-10-07 07:52:00,
2013-10-07 03:57:00,67.0,67.0,29.84,SSW,202,0.0,2.0,100,0.00,,,0.00,Rainwise IP-100,2013-10-07 07:57:00,
2013-10-07 04:02:00,66.0,66.0,29.84,SSE,157,1.0,2.0,100,0.00,,,0.00,Rainwise IP-100,2013-10-07 08:02:00,
2013-10-07 04:07:00,66.0,66.0,29.84,SSE,157,2.0,3.0,100,0.00,,,0.00,Rainwise IP-100,2013-10-07 08:07:00,
2013-10-07 04:12:00,66.0,66.0,29.84,SW,225,1.0,4.0,100,0.00,,,0.00,Rainwise IP-100,2013-10-07 08:12:00,
2013-10-07 04:17:00,66.0,66.0,29.84,South,180,1.0,3.0,100,0.00,,,0.00,Rainwise IP-100,2013-10-07 08:17:00,
2013-10-07 04:22:00,66.0,66.0,29.84,South,180,0.0,4.0,100,0.00,,,0.00,Rainwise IP-100,2013-10-07 08:22:00,
2013-10-07 04:27:00,67.0,67.0,29.83,WSW,247,0.0,6.0,100,0.00,,,0.00,Rainwise IP-100,2013-10-07 08:27:00,
2013-10-07 04:32:00,67.0,67.0,29.84,South,180,0.0,4.0,100,0.00,,,0.00,Rainwise IP-100,2013-10-07 08:32:00,
2013-10-07 04:37:00,67.0,67.0,29.84,SW,225,2.0,4.0,100,0.00,,,0.00,Rainwise IP-100,2013-10-07 08:37:00,
2013-10-07 04:42:00,67.0,67.0,29.83,West,270,1.0,6.0,100,0.00,,,0.00,Rainwise IP-100,2013-10-07 08:42:00,
2013-10-07 04:47:00,67.0,67.0,29.83,WSW,247,2.0,6.0,100,0.00,,,0.00,Rainwise IP-100,2013-10-07 08:47:00,
2013-10-07 04:52:00,67.0,67.0,29.83,South,180,1.0,4.0,100,0.00,,,0.00,Rainwise IP-100,2013-10-07 08:52:00,
2013-10-07 04:57:00,67.0,67.0,29.84,SE,135,4.0,5.0,100,0.00,,,0.00,Rainwise IP-100,2013-10-07 08:57:00,
2013-10-07 05:02:00,67.0,67.0,29.84,South,180,0.0,4.0,100,0.00,,,0.00,Rainwise IP-100,2013-10-07 09:02:00,
2013-10-07 05:07:00,67.0,67.0,29.83,SW,225,1.0,4.0,100,0.00,,,0.00,Rainwise IP-100,2013-10-07 09:07:00,
2013-10-07 05:12:00,67.0,67.0,29.83,SSW,202,0.0,6.0,100,0.00,,,0.00,Rainwise IP-100,2013-10-07 09:12:00,
2013-10-07 05:17:00,67.0,67.0,29.83,WSW,247,0.0,6.0,100,0.00,,,0.00,Rainwise IP-100,2013-10-07 09:17:00,
2013-10-07 05:22:00,67.0,67.0,29.83,WSW,247,0.0,3.0,100,0.00,,,0.00,Rainwise IP-100,2013-10-07 09:22:00,
2013-10-07 05:27:00,67.0,67.0,29.83,South,180,0.0,3.0,100,0.00,,,0.00,Rainwise IP-100,2013-10-07 09:27:00,
2013-10-07 05:32:00,66.0,66.0,29.83,South,180,1.0,3.0,100,0.00,,,0.00,Rainwise IP-100,2013-10-07 09:32:00,
2013-10-07 05:37:00,66.0,66.0,29.83,SSE,157,1.0,5.0,100,0.00,,,0.00,Rainwise IP-100,2013-10-07 09:37:00,
2013-10-07 05:42:00,67.0,67.0,29.83,South,180,1.0,4.0,100,0.00,,,0.00,Rainwise IP-100,2013-10-07 09:42:00,
2013-10-07 05:47:00,66.0,66.0,29.83,South,180,0.0,2.0,100,0.00,,,0.00,Rainwise IP-100,2013-10-07 09:47:00,
2013-10-07 05:52:00,67.0,67.0,29.83,SSE,157,0.0,4.0,100,0.00,,,0.00,Rainwise IP-100,2013-10-07 09:52:00,
2013-10-07 05:57:00,67.0,67.0,29.82,WSW,247,0.0,3.0,100,0.00,,,0.00,Rainwise IP-100,2013-10-07 09:57:00,
2013-10-07 06:02:00,67.0,67.0,29.82,SW,225,0.0,5.0,100,0.00,,,0.00,Rainwise IP-100,2013-10-07 10:02:00,
2013-10-07 06:07:00,67.0,67.0,29.82,SSW,202,2.0,4.0,100,0.00,,,0.00,Rainwise IP-100,2013-10-07 10:07:00,
2013-10-07 06:12:00,67.0,67.0,29.82,South,180,0.0,6.0,100,0.00,,,0.00,Rainwise IP-100,2013-10-07 10:12:00,
2013-10-07 06:17:00,67.0,67.0,29.82,WSW,247,1.0,7.0,100,0.00,,,0.00,Rainwise IP-100,2013-10-07 10:17:00,
2013-10-07 06:22:00,67.0,67.0,29.82,WSW,247,3.0,6.0,100,0.00,,,0.00,Rainwise IP-100,2013-10-07 10:22:00,
2013-10-07 06:27:00,67.0,67.0,29.82,SW,225,1.0,5.0,100,0.00,,,0.00,Rainwise IP-100,2013-10-07 10:27:00,
2013-10-07 06:32:00,67.0,67.0,29.82,SSW,202,2.0,5.0,100,0.00,,,0.00,Rainwise IP-100,2013-10-07 10:32:00,
2013-10-07 06:37:00,67.0,67.0,29.82,SW,225,1.0,7.0,100,0.00,,,0.00,Rainwise IP-100,2013-10-07 10:37:00,
2013-10-07 06:42:00,67.0,67.0,29.82,SSE,157,2.0,6.0,100,0.00,,,0.00,Rainwise IP-100,2013-10-07 10:42:00,
2013-10-07 06:47:00,67.0,67.0,29.82,South,180,0.0,6.0,100,0.00,,,0.00,Rainwise IP-100,2013-10-07 10:47:00,
2013-10-07 06:52:00,68.0,68.0,29.82,South,180,2.0,9.0,100,0.00,,,0.00,Rainwise IP-100,2013-10-07 10:52:00,
2013-10-07 06:57:00,68.0,68.0,29.82,SSW,202,4.0,8.0,100,0.00,,,0.00,Rainwise IP-100,2013-10-07 10:57:00,
2013-10-07 07:02:00,68.0,68.0,29.81,SW,225,1.0,6.0,100,0.00,,,0.00,Rainwise IP-100,2013-10-07 11:02:00,
2013-10-07 07:07:00,68.0,68.0,29.81,West,270,7.0,7.0,100,0.00,,,0.00,Rainwise IP-100,2013-10-07 11:07:00,
2013-10-07 07:12:00,68.0,68.0,29.81,SW,225,3.0,7.0,100,0.00,,,0.00,Rainwise IP-100,2013-10-07 11:12:00,
2013-10-07 07:17:00,68.0,68.0,29.81,SW,225,6.0,6.0,100,0.00,,,0.00,Rainwise IP-100,2013-10-07 11:17:00,
2013-10-07 07:22:00,68.0,68.0,29.81,SSE,157,3.0,7.0,100,0.00,,,0.00,Rainwise IP-100,2013-10-07 11:22:00,
2013-10-07 07:27:00,68.0,68.0,29.81,ENE,67,1.0,7.0,100,0.00,,,0.00,Rainwise IP-100,2013-10-07 11:27:00,
2013-10-07 07:32:00,68.0,68.0,29.81,SW,225,5.0,7.0,100,0.00,,,0.00,Rainwise IP-100,2013-10-07 11:32:00,
2013-10-07 07:37:00,68.0,68.0,29.81,SW,225,2.0,7.0,100,0.00,,,0.00,Rainwise IP-100,2013-10-07 11:37:00,
2013-10-07 07:42:00,68.0,68.0,29.81,SSE,157,1.0,6.0,100,0.00,,,0.00,Rainwise IP-100,2013-10-07 11:42:00,
2013-10-07 07:47:00,68.0,68.0,29.81,South,180,2.0,7.0,100,0.00,,,0.00,Rainwise IP-100,2013-10-07 11:47:00,
2013-10-07 07:52:00,68.0,68.0,29.81,SSE,157,1.0,6.0,100,0.00,,,0.00,Rainwise IP-100,2013-10-07 11:52:00,
2013-10-07 07:57:00,68.0,68.0,29.81,SW,225,5.0,6.0,100,0.00,,,0.00,Rainwise IP-100,2013-10-07 11:57:00,
2013-10-07 08:02:00,68.0,68.0,29.81,SSW,202,0.0,7.0,100,0.00,,,0.00,Rainwise IP-100,2013-10-07 12:02:00,
2013-10-07 08:07:00,68.0,68.0,29.81,SW,225,0.0,7.0,100,0.00,,,0.00,Rainwise IP-100,2013-10-07 12:07:00,
2013-10-07 08:12:00,69.0,69.0,29.81,SW,225,3.0,10.0,100,0.00,,,0.00,Rainwise IP-100,2013-10-07 12:12:00,
2013-10-07 08:17:00,69.0,69.0,29.81,SE,135,1.0,8.0,100,0.00,,,0.00,Rainwise IP-100,2013-10-07 12:17:00,
2013-10-07 08:22:00,69.0,69.0,29.81,WSW,247,2.0,10.0,100,0.00,,,0.00,Rainwise IP-100,2013-10-07 12:22:00,
2013-10-07 08:27:00,69.0,69.0,29.81,SW,225,4.0,10.0,100,0.00,,,0.00,Rainwise IP-100,2013-10-07 12:27:00,
2013-10-07 08:32:00,70.0,70.0,29.81,SSE,157,3.0,6.0,100,0.00,,,0.00,Rainwise IP-100,2013-10-07 12:32:00,
2013-10-07 08:37:00,70.0,70.0,29.81,SE,135,2.0,9.0,100,0.00,,,0.00,Rainwise IP-100,2013-10-07 12:37:00,
2013-10-07 08:42:00,70.0,70.0,29.81,SSE,157,5.0,9.0,100,0.00,,,0.00,Rainwise IP-100,2013-10-07 12:42:00,
2013-10-07 08:47:00,70.0,70.0,29.81,SW,225,4.0,10.0,100,0.00,,,0.00,Rainwise IP-100,2013-10-07 12:47:00,
2013-10-07 08:52:00,70.0,70.0,29.81,SE,135,2.0,7.0,100,0.00,,,0.00,Rainwise IP-100,2013-10-07 12:52:00,
2013-10-07 08:57:00,70.0,70.0,29.81,South,180,3.0,7.0,100,0.00,,,0.00,Rainwise IP-100,2013-10-07 12:57:00,
2013-10-07 09:02:00,70.0,70.0,29.81,East,90,4.0,7.0,100,0.00,,,0.00,Rainwise IP-100,2013-10-07 13:02:00,
2013-10-07 09:07:00,70.0,70.0,29.81,South,180,6.0,7.0,100,0.00,,,0.00,Rainwise IP-100,2013-10-07 13:07:00,
2013-10-07 09:12:00,70.0,70.0,29.80,South,180,5.0,12.0,100,0.00,,,0.00,Rainwise IP-100,2013-10-07 13:12:00,
2013-10-07 09:17:00,70.0,70.0,29.80,SW,225,6.0,9.0,100,0.00,,,0.00,Rainwise IP-100,2013-10-07 13:17:00,
2013-10-07 09:22:00,70.0,70.0,29.81,South,180,5.0,7.0,100,0.00,,,0.00,Rainwise IP-100,2013-10-07 13:22:00,
2013-10-07 09:27:00,70.0,70.0,29.80,SW,225,6.0,6.0,100,0.00,,,0.00,Rainwise IP-100,2013-10-07 13:27:00,
2013-10-07 09:32:00,71.0,71.0,29.80,SSW,202,3.0,13.0,100,0.00,,,0.00,Rainwise IP-100,2013-10-07 13:32:00,
2013-10-07 09:37:00,71.0,70.0,29.80,SSW,202,2.0,9.0,99,0.00,,,0.00,Rainwise IP-100,2013-10-07 13:37:00,
2013-10-07 09:42:00,71.0,70.0,29.80,SW,225,7.0,9.0,99,0.00,,,0.00,Rainwise IP-100,2013-10-07 13:42:00,
2013-10-07 09:47:00,72.0,71.0,29.80,SW,225,6.0,9.0,97,0.00,,,0.00,Rainwise IP-100,2013-10-07 13:47:00,
2013-10-07 09:52:00,72.0,71.0,29.80,South,180,6.0,10.0,96,0.00,,,0.00,Rainwise IP-100,2013-10-07 13:52:00,
2013-10-07 09:57:00,72.0,70.0,29.80,SSE,157,2.0,8.0,95,0.00,,,0.00,Rainwise IP-100,2013-10-07 13:57:00,
2013-10-07 10:02:00,72.0,70.0,29.79,WSW,247,6.0,10.0,94,0.00,,,0.00,Rainwise IP-100,2013-10-07 14:02:00,
2013-10-07 10:07:00,72.0,70.0,29.79,SE,135,5.0,17.0,94,0.00,,,0.00,Rainwise IP-100,2013-10-07 14:07:00,
2013-10-07 10:12:00,73.0,71.0,29.79,SW,225,1.0,7.0,93,0.00,,,0.00,Rainwise IP-100,2013-10-07 14:12:00,
2013-10-07 10:17:00,73.0,70.0,29.79,South,180,1.0,11.0,92,0.00,,,0.00,Rainwise IP-100,2013-10-07 14:17:00,
2013-10-07 10:22:00,73.0,70.0,29.79,South,180,6.0,11.0,91,0.00,,,0.00,Rainwise IP-100,2013-10-07 14:22:00,
2013-10-07 10:27:00,73.0,70.0,29.79,SSE,157,6.0,13.0,91,0.00,,,0.00,Rainwise IP-100,2013-10-07 14:27:00,
2013-10-07 10:32:00,73.0,69.0,29.79,SW,225,5.0,9.0,89,0.00,,,0.00,Rainwise IP-100,2013-10-07 14:32:00,
2013-10-07 10:37:00,74.0,71.0,29.79,East,90,2.0,8.0,89,0.00,,,0.00,Rainwise IP-100,2013-10-07 14:37:00,
2013-10-07 10:42:00,74.0,70.0,29.79,SSE,157,1.0,15.0,87,0.00,,,0.00,Rainwise IP-100,2013-10-07 14:42:00,
2013-10-07 10:47:00,74.0,70.0,29.79,SSW,202,1.0,9.0,87,0.00,,,0.00,Rainwise IP-100,2013-10-07 14:47:00,
2013-10-07 10:52:00,75.0,70.0,29.79,West,270,4.0,8.0,85,0.00,,,0.00,Rainwise IP-100,2013-10-07 14:52:00,
2013-10-07 10:57:00,75.0,70.0,29.79,WSW,247,6.0,8.0,84,0.00,,,0.00,Rainwise IP-100,2013-10-07 14:57:00,
2013-10-07 11:02:00,74.0,69.0,29.79,SW,225,6.0,9.0,84,0.00,,,0.00,Rainwise IP-100,2013-10-07 15:02:00,
2013-10-07 11:07:00,74.0,69.0,29.78,SW,225,4.0,10.0,84,0.00,,,0.00,Rainwise IP-100,2013-10-07 15:07:00,
2013-10-07 11:12:00,74.0,69.0,29.78,SW,225,5.0,9.0,85,0.00,,,0.00,Rainwise IP-100,2013-10-07 15:12:00,
2013-10-07 11:17:00,74.0,69.0,29.78,South,180,5.0,10.0,85,0.00,,,0.00,Rainwise IP-100,2013-10-07 15:17:00,
2013-10-07 11:22:00,73.0,69.0,29.78,East,90,9.0,11.0,86,0.00,,,0.00,Rainwise IP-100,2013-10-07 15:22:00,
2013-10-07 11:27:00,73.0,69.0,29.78,SW,225,6.0,10.0,87,0.00,,,0.00,Rainwise IP-100,2013-10-07 15:27:00,
2013-10-07 11:32:00,73.0,69.0,29.77,South,180,1.0,14.0,87,0.00,,,0.00,Rainwise IP-100,2013-10-07 15:32:00,
2013-10-07 11:37:00,73.0,69.0,29.77,West,270,7.0,10.0,88,0.00,,,0.00,Rainwise IP-100,2013-10-07 15:37:00,
2013-10-07 11:42:00,73.0,69.0,29.77,South,180,4.0,10.0,87,0.00,,,0.00,Rainwise IP-100,2013-10-07 15:42:00,
2013-10-07 11:47:00,73.0,69.0,29.77,WSW,247,7.0,10.0,89,0.00,,,0.00,Rainwise IP-100,2013-10-07 15:47:00,
2013-10-07 11:52:00,73.0,69.0,29.77,NNW,337,4.0,10.0,88,0.00,,,0.00,Rainwise IP-100,2013-10-07 15:52:00,
2013-10-07 11:57:00,74.0,70.0,29.77,SSW,202,8.0,10.0,87,0.00,,,0.00,Rainwise IP-100,2013-10-07 15:57:00,
2013-10-07 12:02:00,74.0,70.0,29.76,South,180,6.0,10.0,87,0.00,,,0.00,Rainwise IP-100,2013-10-07 16:02:00,
2013-10-07 12:07:00,74.0,69.0,29.76,South,180,6.0,14.0,86,0.06,,,0.01,Rainwise IP-100,2013-10-07 16:07:00,
2013-10-07 12:12:00,74.0,69.0,29.76,South,180,6.0,10.0,86,0.06,,,0.01,Rainwise IP-100,2013-10-07 16:12:00,
2013-10-07 12:17:00,74.0,70.0,29.76,West,270,6.0,13.0,87,0.00,,,0.01,Rainwise IP-100,2013-10-07 16:17:00,
2013-10-07 12:22:00,74.0,70.0,29.75,NW,315,7.0,10.0,87,0.00,,,0.01,Rainwise IP-100,2013-10-07 16:22:00,
2013-10-07 12:27:00,74.0,70.0,29.75,SSW,202,5.0,12.0,87,0.00,,,0.01,Rainwise IP-100,2013-10-07 16:27:00,
2013-10-07 12:32:00,74.0,69.0,29.75,South,180,6.0,11.0,86,0.00,,,0.01,Rainwise IP-100,2013-10-07 16:32:00,
2013-10-07 12:37:00,74.0,69.0,29.75,South,180,3.0,10.0,86,0.00,,,0.01,Rainwise IP-100,2013-10-07 16:37:00,
2013-10-07 12:42:00,75.0,70.0,29.75,SW,225,8.0,14.0,84,0.00,,,0.01,Rainwise IP-100,2013-10-07 16:42:00,
2013-10-07 12:47:00,75.0,70.0,29.75,South,180,8.0,15.0,84,0.00,,,0.01,Rainwise IP-100,2013-10-07 16:47:00,
2013-10-07 12:52:00,75.0,70.0,29.74,West,270,7.0,16.0,84,0.00,,,0.01,Rainwise IP-100,2013-10-07 16:52:00,
2013-10-07 12:57:00,75.0,70.0,29.74,South,180,3.0,11.0,85,0.00,,,0.01,Rainwise IP-100,2013-10-07 16:57:00,
2013-10-07 13:02:00,75.0,70.0,29.74,WSW,247,5.0,12.0,84,0.00,,,0.01,Rainwise IP-100,2013-10-07 17:02:00,
2013-10-07 13:07:00,75.0,69.0,29.73,South,180,7.0,12.0,82,0.00,,,0.01,Rainwise IP-100,2013-10-07 17:07:00,
2013-10-07 13:12:00,75.0,69.0,29.73,SE,135,6.0,12.0,82,0.00,,,0.01,Rainwise IP-100,2013-10-07 17:12:00,
2013-10-07 13:17:00,75.0,69.0,29.72,SSW,202,10.0,15.0,82,0.00,,,0.01,Rainwise IP-100,2013-10-07 17:17:00,
2013-10-07 13:22:00,75.0,69.0,29.72,West,270,6.0,11.0,83,0.00,,,0.01,Rainwise IP-100,2013-10-07 17:22:00,
2013-10-07 13:27:00,75.0,69.0,29.72,ESE,112,6.0,12.0,83,0.00,,,0.01,Rainwise IP-100,2013-10-07 17:27:00,
2013-10-07 13:32:00,75.0,70.0,29.72,WSW,247,4.0,12.0,84,0.00,,,0.01,Rainwise IP-100,2013-10-07 17:32:00,
2013-10-07 13:37:00,75.0,69.0,29.72,South,180,7.0,14.0,83,0.00,,,0.01,Rainwise IP-100,2013-10-07 17:37:00,
2013-10-07 13:42:00,75.0,70.0,29.71,SW,225,9.0,15.0,84,0.00,,,0.01,Rainwise IP-100,2013-10-07 17:42:00,
2013-10-07 13:47:00,75.0,70.0,29.71,WSW,247,6.0,17.0,84,0.00,,,0.01,Rainwise IP-100,2013-10-07 17:47:00,
2013-10-07 13:52:00,75.0,70.0,29.71,SW,225,9.0,9.0,84,0.00,,,0.01,Rainwise IP-100,2013-10-07 17:52:00,
2013-10-07 13:57:00,75.0,69.0,29.71,South,180,7.0,16.0,83,0.00,,,0.01,Rainwise IP-100,2013-10-07 17:57:00,
2013-10-07 14:02:00,75.0,70.0,29.71,South,180,5.0,13.0,84,0.00,,,0.01,Rainwise IP-100,2013-10-07 18:02:00,
2013-10-07 14:07:00,75.0,70.0,29.71,WSW,247,7.0,13.0,84,0.00,,,0.01,Rainwise IP-100,2013-10-07 18:07:00,
2013-10-07 14:12:00,75.0,69.0,29.71,SW,225,7.0,12.0,83,0.00,,,0.01,Rainwise IP-100,2013-10-07 18:12:00,
2013-10-07 14:17:00,75.0,69.0,29.70,South,180,8.0,16.0,82,0.00,,,0.01,Rainwise IP-100,2013-10-07 18:17:00,
2013-10-07 14:22:00,75.0,69.0,29.71,WSW,247,8.0,15.0,82,0.00,,,0.01,Rainwise IP-100,2013-10-07 18:22:00,
2013-10-07 14:27:00,75.0,69.0,29.70,SSE,157,1.0,16.0,82,0.00,,,0.01,Rainwise IP-100,2013-10-07 18:27:00,
2013-10-07 14:32:00,75.0,69.0,29.70,SE,135,6.0,11.0,83,0.00,,,0.01,Rainwise IP-100,2013-10-07 18:32:00,
2013-10-07 14:37:00,75.0,69.0,29.71,West,270,9.0,14.0,82,0.00,,,0.01,Rainwise IP-100,2013-10-07 18:37:00,
2013-10-07 14:42:00,75.0,69.0,29.71,SSW,202,6.0,15.0,82,0.00,,,0.01,Rainwise IP-100,2013-10-07 18:42:00,
2013-10-07 14:47:00,75.0,69.0,29.71,SSW,202,6.0,10.0,82,0.00,,,0.01,Rainwise IP-100,2013-10-07 18:47:00,
2013-10-07 14:52:00,75.0,69.0,29.71,WSW,247,6.0,18.0,82,0.00,,,0.01,Rainwise IP-100,2013-10-07 18:52:00,
2013-10-07 14:57:00,75.0,69.0,29.71,NE,45,7.0,11.0,83,0.00,,,0.01,Rainwise IP-100,2013-10-07 18:57:00,
2013-10-07 15:02:00,75.0,69.0,29.70,SW,225,6.0,8.0,83,0.00,,,0.01,Rainwise IP-100,2013-10-07 19:02:00,
2013-10-07 15:07:00,74.0,69.0,29.70,SW,225,5.0,15.0,84,0.00,,,0.01,Rainwise IP-100,2013-10-07 19:07:00,
2013-10-07 15:12:00,74.0,69.0,29.70,SSW,202,3.0,12.0,84,0.00,,,0.01,Rainwise IP-100,2013-10-07 19:12:00,
2013-10-07 15:17:00,74.0,69.0,29.70,SSW,202,7.0,10.0,85,0.00,,,0.01,Rainwise IP-100,2013-10-07 19:17:00,
2013-10-07 15:22:00,73.0,68.0,29.70,SW,225,6.0,13.0,85,0.00,,,0.01,Rainwise IP-100,2013-10-07 19:22:00,
2013-10-07 15:27:00,73.0,69.0,29.70,South,180,6.0,15.0,86,0.00,,,0.01,Rainwise IP-100,2013-10-07 19:27:00,
2013-10-07 15:32:00,73.0,69.0,29.70,WSW,247,7.0,12.0,86,0.00,,,0.01,Rainwise IP-100,2013-10-07 19:32:00,
2013-10-07 15:37:00,73.0,69.0,29.69,WSW,247,6.0,10.0,86,0.00,,,0.01,Rainwise IP-100,2013-10-07 19:37:00,
2013-10-07 15:42:00,73.0,69.0,29.69,NNE,22,5.0,9.0,86,0.00,,,0.01,Rainwise IP-100,2013-10-07 19:42:00,
2013-10-07 15:47:00,73.0,69.0,29.70,SW,225,6.0,10.0,87,0.00,,,0.01,Rainwise IP-100,2013-10-07 19:47:00,
2013-10-07 15:52:00,73.0,69.0,29.69,North,360,5.0,13.0,87,0.00,,,0.01,Rainwise IP-100,2013-10-07 19:52:00,
2013-10-07 15:57:00,73.0,69.0,29.69,WSW,247,9.0,12.0,87,0.00,,,0.01,Rainwise IP-100,2013-10-07 19:57:00,
2013-10-07 16:02:00,73.0,69.0,29.69,SW,225,5.0,13.0,87,0.00,,,0.01,Rainwise IP-100,2013-10-07 20:02:00,
2013-10-07 16:07:00,73.0,69.0,29.70,SW,225,7.0,16.0,87,0.00,,,0.01,Rainwise IP-100,2013-10-07 20:07:00,
2013-10-07 16:12:00,73.0,69.0,29.69,WSW,247,9.0,14.0,87,0.00,,,0.01,Rainwise IP-100,2013-10-07 20:12:00,
2013-10-07 16:17:00,72.0,68.0,29.69,SW,225,7.0,13.0,87,0.00,,,0.01,Rainwise IP-100,2013-10-07 20:17:00,
2013-10-07 16:22:00,72.0,68.0,29.69,South,180,6.0,12.0,87,0.00,,,0.01,Rainwise IP-100,2013-10-07 20:22:00,
2013-10-07 16:27:00,72.0,68.0,29.69,SSW,202,5.0,12.0,87,0.00,,,0.01,Rainwise IP-100,2013-10-07 20:27:00,
2013-10-07 16:32:00,72.0,68.0,29.69,SSW,202,7.0,10.0,87,0.00,,,0.01,Rainwise IP-100,2013-10-07 20:32:00,
2013-10-07 16:37:00,72.0,68.0,29.69,SW,225,6.0,15.0,87,0.00,,,0.01,Rainwise IP-100,2013-10-07 20:37:00,
2013-10-07 16:42:00,73.0,69.0,29.69,SW,225,7.0,13.0,87,0.00,,,0.01,Rainwise IP-100,2013-10-07 20:42:00,
2013-10-07 16:47:00,73.0,69.0,29.70,NNW,337,1.0,12.0,87,0.00,,,0.01,Rainwise IP-100,2013-10-07 20:47:00,
2013-10-07 16:52:00,73.0,69.0,29.70,SW,225,3.0,8.0,87,0.00,,,0.01,Rainwise IP-100,2013-10-07 20:52:00,
2013-10-07 16:57:00,73.0,69.0,29.69,WSW,247,7.0,11.0,87,0.00,,,0.01,Rainwise IP-100,2013-10-07 20:57:00,
2013-10-07 17:02:00,73.0,69.0,29.69,SW,225,8.0,13.0,86,0.00,,,0.01,Rainwise IP-100,2013-10-07 21:02:00,
2013-10-07 17:07:00,73.0,69.0,29.69,WSW,247,7.0,13.0,86,0.00,,,0.01,Rainwise IP-100,2013-10-07 21:07:00,
2013-10-07 17:12:00,73.0,69.0,29.70,West,270,4.0,9.0,86,0.00,,,0.01,Rainwise IP-100,2013-10-07 21:12:00,
2013-10-07 17:17:00,72.0,68.0,29.70,West,270,3.0,12.0,87,0.00,,,0.01,Rainwise IP-100,2013-10-07 21:17:00,
2013-10-07 17:22:00,72.0,68.0,29.71,SW,225,6.0,11.0,87,0.00,,,0.01,Rainwise IP-100,2013-10-07 21:22:00,
2013-10-07 17:27:00,72.0,68.0,29.71,North,360,4.0,12.0,89,0.06,,,0.02,Rainwise IP-100,2013-10-07 21:27:00,
2013-10-07 17:32:00,71.0,68.0,29.72,South,180,5.0,7.0,92,0.12,,,0.04,Rainwise IP-100,2013-10-07 21:32:00,
2013-10-07 17:37:00,71.0,69.0,29.72,South,180,4.0,11.0,94,0.30,,,0.07,Rainwise IP-100,2013-10-07 21:37:00,
2013-10-07 17:42:00,70.0,69.0,29.72,South,180,3.0,8.0,97,0.30,,,0.08,Rainwise IP-100,2013-10-07 21:42:00,
2013-10-07 17:47:00,70.0,69.0,29.72,North,360,1.0,6.0,97,0.06,,,0.08,Rainwise IP-100,2013-10-07 21:47:00,
2013-10-07 17:52:00,69.0,68.0,29.72,SW,225,3.0,7.0,97,0.00,,,0.08,Rainwise IP-100,2013-10-07 21:52:00,
2013-10-07 17:57:00,69.0,68.0,29.72,SSW,202,6.0,10.0,98,0.00,,,0.08,Rainwise IP-100,2013-10-07 21:57:00,
2013-10-07 18:02:00,69.0,68.0,29.72,SSE,157,4.0,9.0,98,0.00,,,0.08,Rainwise IP-100,2013-10-07 22:02:00,
2013-10-07 18:07:00,68.0,67.0,29.72,South,180,4.0,9.0,99,0.00,,,0.08,Rainwise IP-100,2013-10-07 22:07:00,
2013-10-07 18:12:00,68.0,67.0,29.71,SSW,202,7.0,12.0,99,0.00,,,0.08,Rainwise IP-100,2013-10-07 22:12:00,
2013-10-07 18:17:00,68.0,67.0,29.71,WSW,247,7.0,8.0,99,0.00,,,0.08,Rainwise IP-100,2013-10-07 22:17:00,
2013-10-07 18:22:00,68.0,67.0,29.73,SW,225,6.0,7.0,99,0.00,,,0.08,Rainwise IP-100,2013-10-07 22:22:00,
2013-10-07 18:27:00,67.0,66.0,29.73,South,180,3.0,10.0,99,0.00,,,0.08,Rainwise IP-100,2013-10-07 22:27:00,
2013-10-07 18:32:00,67.0,66.0,29.73,SSW,202,3.0,9.0,98,0.00,,,0.08,Rainwise IP-100,2013-10-07 22:32:00,
2013-10-07 18:37:00,67.0,66.0,29.73,SSW,202,4.0,7.0,99,0.00,,,0.08,Rainwise IP-100,2013-10-07 22:37:00,
2013-10-07 18:42:00,67.0,67.0,29.73,WSW,247,2.0,8.0,100,0.00,,,0.08,Rainwise IP-100,2013-10-07 22:42:00,
2013-10-07 18:47:00,66.0,66.0,29.71,South,180,1.0,7.0,100,0.00,,,0.08,Rainwise IP-100,2013-10-07 22:47:00,
2013-10-07 18:52:00,66.0,66.0,29.71,South,180,4.0,6.0,100,0.00,,,0.08,Rainwise IP-100,2013-10-07 22:52:00,
2013-10-07 18:57:00,66.0,66.0,29.72,SW,225,6.0,7.0,100,0.00,,,0.08,Rainwise IP-100,2013-10-07 22:57:00,
2013-10-07 19:02:00,66.0,66.0,29.71,SW,225,4.0,6.0,100,0.00,,,0.08,Rainwise IP-100,2013-10-07 23:02:00,
2013-10-07 19:07:00,66.0,66.0,29.72,South,180,3.0,6.0,100,0.06,,,0.09,Rainwise IP-100,2013-10-07 23:07:00,
2013-10-07 19:12:00,66.0,66.0,29.72,South,180,2.0,6.0,100,0.06,,,0.09,Rainwise IP-100,2013-10-07 23:12:00,
2013-10-07 19:17:00,66.0,66.0,29.73,South,180,6.0,6.0,100,0.00,,,0.09,Rainwise IP-100,2013-10-07 23:17:00,
2013-10-07 19:22:00,66.0,66.0,29.72,SSW,202,0.0,7.0,100,0.00,,,0.09,Rainwise IP-100,2013-10-07 23:22:00,
2013-10-07 19:27:00,66.0,66.0,29.72,South,180,5.0,7.0,100,0.00,,,0.09,Rainwise IP-100,2013-10-07 23:27:00,
2013-10-07 19:32:00,66.0,66.0,29.73,South,180,0.0,6.0,100,0.00,,,0.09,Rainwise IP-100,2013-10-07 23:32:00,
2013-10-07 19:37:00,66.0,66.0,29.72,WSW,247,0.0,3.0,100,0.00,,,0.09,Rainwise IP-100,2013-10-07 23:37:00,
2013-10-07 19:42:00,66.0,66.0,29.73,West,270,0.0,3.0,100,0.00,,,0.09,Rainwise IP-100,2013-10-07 23:42:00,
2013-10-07 19:47:00,66.0,66.0,29.73,SE,135,2.0,10.0,100,0.00,,,0.10,Rainwise IP-100,2013-10-07 23:47:00,
2013-10-07 19:52:00,65.0,64.0,29.73,NNW,337,1.0,9.0,96,0.06,,,0.10,Rainwise IP-100,2013-10-07 23:52:00,
2013-10-07 19:57:00,65.0,64.0,29.74,North,360,0.0,6.0,99,0.06,,,0.10,Rainwise IP-100,2013-10-07 23:57:00,
2013-10-07 20:02:00,64.0,62.0,29.74,NNW,337,0.0,5.0,95,0.00,,,0.10,Rainwise IP-100,2013-10-08 00:02:00,
2013-10-07 20:07:00,64.0,63.0,29.74,NW,315,0.0,3.0,99,0.00,,,0.10,Rainwise IP-100,2013-10-08 00:07:00,
2013-10-07 20:12:00,63.0,61.0,29.74,North,360,0.0,6.0,95,0.00,,,0.10,Rainwise IP-100,2013-10-08 00:12:00,
2013-10-07 20:17:00,63.0,61.0,29.73,NNE,22,2.0,5.0,94,0.00,,,0.10,Rainwise IP-100,2013-10-08 00:17:00,
2013-10-07 20:22:00,63.0,61.0,29.73,NNW,337,4.0,4.0,94,0.00,,,0.10,Rainwise IP-100,2013-10-08 00:22:00,
2013-10-07 20:27:00,63.0,61.0,29.72,North,360,0.0,5.0,94,0.00,,,0.10,Rainwise IP-100,2013-10-08 00:27:00,
2013-10-07 20:32:00,62.0,60.0,29.73,NE,45,0.0,4.0,94,0.00,,,0.10,Rainwise IP-100,2013-10-08 00:32:00,
2013-10-07 20:37:00,62.0,60.0,29.73,NNW,337,6.0,6.0,95,0.00,,,0.10,Rainwise IP-100,2013-10-08 00:37:00,
2013-10-07 20:42:00,62.0,60.0,29.73,North,360,2.0,6.0,95,0.00,,,0.10,Rainwise IP-100,2013-10-08 00:42:00,
2013-10-07 20:47:00,62.0,60.0,29.73,NE,45,0.0,7.0,95,0.00,,,0.10,Rainwise IP-100,2013-10-08 00:47:00,
2013-10-07 20:52:00,62.0,60.0,29.73,NW,315,0.0,1.0,95,0.00,,,0.10,Rainwise IP-100,2013-10-08 00:52:00,
2013-10-07 20:57:00,62.0,61.0,29.73,North,360,0.0,5.0,96,0.00,,,0.10,Rainwise IP-100,2013-10-08 00:57:00,
2013-10-07 21:02:00,62.0,60.0,29.74,East,90,4.0,8.0,95,0.00,,,0.10,Rainwise IP-100,2013-10-08 01:02:00,
2013-10-07 21:07:00,62.0,60.0,29.73,NW,315,0.0,5.0,95,0.00,,,0.10,Rainwise IP-100,2013-10-08 01:07:00,
2013-10-07 21:12:00,62.0,61.0,29.73,WSW,247,0.0,3.0,96,0.00,,,0.10,Rainwise IP-100,2013-10-08 01:12:00,
2013-10-07 21:17:00,62.0,60.0,29.74,NW,315,0.0,2.0,95,0.00,,,0.10,Rainwise IP-100,2013-10-08 01:17:00,
2013-10-07 21:22:00,62.0,60.0,29.75,North,360,2.0,6.0,94,0.00,,,0.10,Rainwise IP-100,2013-10-08 01:22:00,
2013-10-07 21:27:00,62.0,60.0,29.75,NNW,337,0.0,6.0,92,0.00,,,0.10,Rainwise IP-100,2013-10-08 01:27:00,
2013-10-07 21:33:00,62.0,60.0,29.75,NNE,22,2.0,4.0,94,0.00,,,0.10,Rainwise IP-100,2013-10-08 01:33:00,
2013-10-07 21:38:00,62.0,60.0,29.75,NW,315,0.0,5.0,94,0.00,,,0.10,Rainwise IP-100,2013-10-08 01:38:00,
2013-10-07 21:43:00,62.0,60.0,29.75,NW,315,0.0,4.0,93,0.00,,,0.10,Rainwise IP-100,2013-10-08 01:43:00,
2013-10-07 21:48:00,62.0,59.0,29.75,North,360,0.0,6.0,91,0.00,,,0.10,Rainwise IP-100,2013-10-08 01:48:00,
2013-10-07 21:53:00,62.0,60.0,29.76,NNW,337,0.0,5.0,92,0.00,,,0.10,Rainwise IP-100,2013-10-08 01:53:00,
2013-10-07 21:58:00,62.0,60.0,29.76,NW,315,0.0,3.0,92,0.00,,,0.10,Rainwise IP-100,2013-10-08 01:58:00,
2013-10-07 22:03:00,62.0,60.0,29.76,SE,135,0.0,0.0,92,0.00,,,0.10,Rainwise IP-100,2013-10-08 02:03:00,
2013-10-07 22:08:00,62.0,60.0,29.76,NW,315,1.0,4.0,92,0.00,,,0.10,Rainwise IP-100,2013-10-08 02:08:00,
2013-10-07 22:13:00,61.0,59.0,29.76,NW,315,0.0,2.0,92,0.00,,,0.10,Rainwise IP-100,2013-10-08 02:13:00,
2013-10-07 22:18:00,61.0,59.0,29.76,WNW,292,0.0,3.0,92,0.00,,,0.10,Rainwise IP-100,2013-10-08 02:18:00,
2013-10-07 22:23:00,61.0,59.0,29.76,NW,315,0.0,1.0,93,0.00,,,0.10,Rainwise IP-100,2013-10-08 02:23:00,
2013-10-07 22:28:00,61.0,59.0,29.77,NW,315,0.0,2.0,93,0.00,,,0.10,Rainwise IP-100,2013-10-08 02:28:00,
2013-10-07 22:33:00,61.0,59.0,29.77,NW,315,0.0,0.0,92,0.00,,,0.10,Rainwise IP-100,2013-10-08 02:33:00,
2013-10-07 22:38:00,62.0,60.0,29.77,NW,315,0.0,0.0,92,0.00,,,0.10,Rainwise IP-100,2013-10-08 02:38:00,
2013-10-07 22:43:00,61.0,59.0,29.77,NNE,22,0.0,3.0,92,0.00,,,0.10,Rainwise IP-100,2013-10-08 02:43:00,
2013-10-07 22:48:00,61.0,59.0,29.77,NNE,22,0.0,3.0,92,0.00,,,0.10,Rainwise IP-100,2013-10-08 02:48:00,
2013-10-07 22:53:00,61.0,59.0,29.77,North,360,0.0,2.0,92,0.00,,,0.10,Rainwise IP-100,2013-10-08 02:53:00,
2013-10-07 22:58:00,61.0,59.0,29.77,NW,315,1.0,3.0,92,0.00,,,0.10,Rainwise IP-100,2013-10-08 02:58:00,
2013-10-07 23:03:00,61.0,59.0,29.77,NW,315,1.0,5.0,92,0.00,,,0.10,Rainwise IP-100,2013-10-08 03:03:00,
2013-10-07 23:08:00,61.0,59.0,29.77,North,360,0.0,3.0,92,0.00,,,0.10,Rainwise IP-100,2013-10-08 03:08:00,
2013-10-07 23:13:00,61.0,58.0,29.78,North,360,0.0,5.0,90,0.00,,,0.10,Rainwise IP-100,2013-10-08 03:13:00,
2013-10-07 23:18:00,61.0,58.0,29.78,NW,315,2.0,4.0,90,0.00,,,0.10,Rainwise IP-100,2013-10-08 03:18:00,
2013-10-07 23:23:00,61.0,57.0,29.78,NW,315,0.0,6.0,87,0.00,,,0.10,Rainwise IP-100,2013-10-08 03:23:00,
2013-10-07 23:28:00,61.0,57.0,29.78,North,360,5.0,6.0,87,0.00,,,0.10,Rainwise IP-100,2013-10-08 03:28:00,
2013-10-07 23:33:00,61.0,56.0,29.78,North,360,1.0,8.0,85,0.00,,,0.10,Rainwise IP-100,2013-10-08 03:33:00,
2013-10-07 23:38:00,62.0,56.0,29.78,WNW,292,5.0,6.0,82,0.00,,,0.10,Rainwise IP-100,2013-10-08 03:38:00,
2013-10-07 23:43:00,62.0,55.0,29.79,North,360,2.0,10.0,79,0.00,,,0.10,Rainwise IP-100,2013-10-08 03:43:00,
2013-10-07 23:48:00,62.0,55.0,29.79,North,360,1.0,7.0,78,0.00,,,0.10,Rainwise IP-100,2013-10-08 03:48:00,
2013-10-07 23:53:00,62.0,54.0,29.79,NNW,337,4.0,7.0,75,0.00,,,0.10,Rainwise IP-100,2013-10-08 03:53:00,
2013-10-07 23:58:00,62.0,53.0,29.79,NE,45,4.0,7.0,74,0.00,,,0.10,Rainwise IP-100,2013-10-08 03:58:00,